This demonstration page uses our WeatherBlox Daily Observations layout. Learn more.

Left ArrowRight Arrow

Hourly Observations for March 2, 2018

Temp ( °F °C ) Dew Point ( °F °C ) Humidity (%) Winds ( mph kmh ) Pressure ( in mb ) Visibility ( mi km ) Precip ( " mm )
12:53 am 00:53 Clear 37 2.8 34 1.1 89 89 W 3 6 29.73 1007 10 16 0.00 0.00
1:53 am 01:53 Clear 40 4.4 27 -2.8 60 60 SW 6 9 29.77 1008 10 16 0.00 0.00
2:53 am 02:53 Clear 39 3.9 26 -3.3 60 60 WSW 3 6 29.79 1009 10 16 0.00 0.00
3:53 am 03:53 Clear 34 1.1 28 -2.2 79 79 E 3 6 29.82 1010 10 16 0.00 0.00
4:53 am 04:53 Clear 32 0 28 -2.2 85 85 Calm 29.84 1011 10 16 0.00 0.00
5:53 am 05:53 Mostly Clear 31 -0.6 27 -2.8 85 85 WNW 3 6 29.87 1012 10 16 0.00 0.00
6:53 am 06:53 Cloudy 34 1.1 30 -1.1 85 85 WNW 5 7 29.89 1012 10 16 0.00 0.00
7:53 am 07:53 Cloudy 38 3.3 31 -0.6 76 76 Calm 29.93 1014 10 16 0.00 0.00
8:53 am 08:53 Cloudy 41 5 34 1.1 76 76 SSE 5 7 29.94 1014 10 16 0.00 0.00
9:53 am 09:53 Cloudy 45 7.2 35 1.7 68 68 S 15 24 29.92 1013 10 16 0.00 0.00
10:12 am 10:12 Cloudy 46 7.8 35 1.7 66 66 S 12 19 29.94 1014 10 16 0.00 0.00
10:19 am 10:19 Cloudy 45 7.2 34 1.1 66 66 S 17 28 29.94 1014 10 16 0.00 0.00
10:31 am 10:31 Mostly Cloudy 46 7.8 34 1.1 63 63 S 16 26 29.94 1014 10 16 0.00 0.00
10:53 am 10:53 Mostly Cloudy 47 8.3 33 0.6 59 59 S 16 26 29.92 1013 10 16 0.00 0.00
11:53 am 11:53 Mostly Cloudy 48 8.9 33 0.6 56 56 SSE 22 35 29.90 1013 10 16 0.00 0.00
12:53 pm 12:53 Partly Cloudy 50 10 31 -0.6 48 48 S 21 33 29.88 1012 10 16 0.00 0.00
1:53 pm 13:53 Mostly Sunny 50 10 29 -1.7 44 44 S 18 30 29.85 1011 10 16 0.00 0.00
2:53 pm 14:53 Cloudy 50 10 29 -1.7 44 44 SSE 20 31 29.83 1010 10 16 0.00 0.00
3:53 pm 15:53 Cloudy 49 9.4 31 -0.6 50 50 SSE 14 22 29.82 1010 10 16 0.00 0.00
4:53 pm 16:53 Cloudy 47 8.3 34 1.1 61 61 S 18 30 29.80 1009 10 16 0.00 0.00
5:23 pm 17:23 Cloudy with Rain 41 5 37 2.8 86 86 S 21 33 29.85 1011 3 5 0.03 0.76
5:53 pm 17:53 Cloudy with Light Rain 41 5 38 3.3 89 89 SW 7 11 29.83 1010 5 8 0.14 3.56
6:53 pm 18:53 Cloudy with Rain 40 4.4 37 2.8 89 89 ESE 13 20 29.81 1010 5 8 0.17 4.32
7:38 pm 19:38 Cloudy with Rain 39 3.9 37 2.8 93 93 Calm 29.85 1011 4 6 0.05 1.27
7:53 pm 19:53 Cloudy with Light Rain 39 3.9 37 2.8 93 93 NE 5 7 29.83 1010 4 6 0.08 2.03
8:23 pm 20:23 Cloudy with Light Rain 39 3.9 37 2.8 93 93 ENE 3 6 29.85 1011 7 11 0.03 0.76
8:53 pm 20:53 Cloudy 39 3.9 37 2.8 93 93 NNE 6 9 29.83 1010 10 16 0.04 1.02
9:00 pm 21:00 Cloudy 38 3.3 36 2.2 93 93 N 8 13 29.85 1011 10 16 0.00 0.00
9:09 pm 21:09 Cloudy 38 3.3 36 2.2 93 93 NNE 7 11 29.85 1011 10 16 0.00 0.00
9:19 pm 21:19 Cloudy 37 2.8 35 1.7 93 93 NNE 7 11 29.85 1011 10 16 0.00 0.00
9:53 pm 21:53 Cloudy 37 2.8 35 1.7 93 93 NE 6 9 29.85 1011 10 16 0.00 0.00
10:53 pm 22:53 Cloudy 37 2.8 36 2.2 96 96 NNW 3 6 29.86 1011 10 16 0.00 0.00
11:01 pm 23:01 Cloudy 38 3.3 36 2.2 93 93 Calm 29.88 1012 10 16 0.00 0.00
11:28 pm 23:28 Cloudy 37 2.8 36 2.2 96 96 Calm 29.91 1013 10 16 0.00 0.00
11:46 pm 23:46 Cloudy 38 3.3 36 2.2 93 93 NNW 3 6 29.91 1013 10 16 0.00 0.00
11:53 pm 23:53 Cloudy 38 3.3 36 2.2 93 93 N 3 6 29.87 1012 10 16 0.00 0.00

Powered by AerisWeather